TimeCST,TemperatureF,Dew PointF,Humidity,Sea Level PressureIn,VisibilityMPH,Wind Direction,Wind SpeedMPH,Gust SpeedMPH,PrecipitationIn,Events,Conditions,WindDirDegrees,DateUTC
12:15 AM,57.2,51.8,82,30.25,10.0,Calm,Calm,-,N/A,,Overcast,0,2012-12-03 06:15:00
12:55 AM,57.2,51.8,82,30.25,10.0,Calm,Calm,-,N/A,,Overcast,0,2012-12-03 06:55:00
1:15 AM,55.4,51.8,88,30.25,10.0,Calm,Calm,-,N/A,,Overcast,0,2012-12-03 07:15:00
1:35 AM,55.4,51.8,88,30.26,10.0,Calm,Calm,-,N/A,,Overcast,0,2012-12-03 07:35:00
1:55 AM,55.4,51.8,88,30.25,10.0,Calm,Calm,-,N/A,,Overcast,0,2012-12-03 07:55:00
2:15 AM,55.4,51.8,88,30.25,10.0,Calm,Calm,-,N/A,,Overcast,0,2012-12-03 08:15:00
2:35 AM,55.4,51.8,88,30.25,10.0,Calm,Calm,-,N/A,,Overcast,0,2012-12-03 08:35:00
2:55 AM,55.4,51.8,88,30.25,10.0,Calm,Calm,-,N/A,,Overcast,0,2012-12-03 08:55:00
3:15 AM,55.4,51.8,88,30.25,10.0,Calm,Calm,-,N/A,,Overcast,0,2012-12-03 09:15:00
3:35 AM,53.6,51.8,94,30.26,10.0,Calm,Calm,-,N/A,,Mostly Cloudy,0,2012-12-03 09:35:00
3:55 AM,53.6,51.8,94,30.25,10.0,Calm,Calm,-,N/A,,Scattered Clouds,0,2012-12-03 09:55:00
4:15 AM,51.8,51.8,100,30.25,10.0,Calm,Calm,-,N/A,,Clear,0,2012-12-03 10:15:00
4:35 AM,50.0,48.2,94,30.26,10.0,Calm,Calm,-,N/A,,Scattered Clouds,0,2012-12-03 10:35:00
4:55 AM,51.8,50.0,94,30.26,10.0,Calm,Calm,-,N/A,,Clear,0,2012-12-03 10:55:00
5:15 AM,48.2,48.2,100,30.27,10.0,Calm,Calm,-,N/A,,Clear,0,2012-12-03 11:15:00
5:35 AM,48.2,46.4,93,30.27,10.0,Calm,Calm,-,N/A,,Clear,0,2012-12-03 11:35:00
5:55 AM,46.4,46.4,100,30.27,10.0,Calm,Calm,-,N/A,,Clear,0,2012-12-03 11:55:00
6:35 AM,46.4,44.6,93,30.28,10.0,Calm,Calm,-,N/A,,Clear,0,2012-12-03 12:35:00
6:55 AM,46.4,46.4,100,30.29,7.0,Calm,Calm,-,N/A,,Clear,0,2012-12-03 12:55:00
7:15 AM,46.4,46.4,100,30.29,10.0,Calm,Calm,-,N/A,,Clear,0,2012-12-03 13:15:00
7:35 AM,48.2,46.4,93,30.29,10.0,Calm,Calm,-,N/A,,Clear,0,2012-12-03 13:35:00
7:55 AM,51.8,50.0,94,30.29,10.0,Calm,Calm,-,N/A,,Clear,0,2012-12-03 13:55:00
8:15 AM,53.6,51.8,94,30.29,10.0,Calm,Calm,-,N/A,,Clear,0,2012-12-03 14:15:00
8:35 AM,57.2,51.8,82,30.29,10.0,Calm,Calm,-,N/A,,Clear,0,2012-12-03 14:35:00
9:15 AM,64.4,53.6,68,30.29,10.0,South,5.8,-,N/A,,Clear,170,2012-12-03 15:15:00
9:35 AM,66.2,53.6,64,30.29,10.0,SSE,5.8,-,N/A,,Clear,150,2012-12-03 15:35:00
9:55 AM,66.2,53.6,64,30.28,10.0,SE,5.8,-,N/A,,Clear,140,2012-12-03 15:55:00
10:15 AM,68.0,53.6,60,30.28,10.0,SSE,8.1,-,N/A,,Scattered Clouds,160,2012-12-03 16:15:00
10:35 AM,68.0,53.6,60,30.28,10.0,South,8.1,-,N/A,,Scattered Clouds,190,2012-12-03 16:35:00
10:55 AM,69.8,53.6,56,30.26,10.0,South,9.2,16.1,N/A,,Clear,180,2012-12-03 16:55:00
11:15 AM,69.8,53.6,56,30.25,10.0,South,9.2,-,N/A,,Clear,180,2012-12-03 17:15:00
11:35 AM,69.8,53.6,56,30.24,10.0,SSE,4.6,-,N/A,,Clear,150,2012-12-03 17:35:00
11:55 AM,71.6,53.6,53,30.24,10.0,South,8.1,-,N/A,,Clear,180,2012-12-03 17:55:00
12:15 PM,71.6,53.6,53,30.23,10.0,SSE,8.1,-,N/A,,Clear,160,2012-12-03 18:15:00
12:35 PM,71.6,53.6,53,30.22,10.0,South,9.2,-,N/A,,Scattered Clouds,180,2012-12-03 18:35:00
12:55 PM,71.6,53.6,53,30.22,10.0,South,6.9,-,N/A,,Scattered Clouds,190,2012-12-03 18:55:00
1:15 PM,71.6,53.6,53,30.21,10.0,Calm,Calm,-,N/A,,Mostly Cloudy,0,2012-12-03 19:15:00
1:35 PM,71.6,53.6,53,30.20,10.0,South,6.9,-,N/A,,Mostly Cloudy,180,2012-12-03 19:35:00
1:55 PM,71.6,53.6,53,30.20,10.0,SSW,6.9,-,N/A,,Scattered Clouds,200,2012-12-03 19:55:00
2:15 PM,71.6,53.6,53,30.20,10.0,South,8.1,-,N/A,,Clear,190,2012-12-03 20:15:00
2:35 PM,71.6,53.6,53,30.19,10.0,Calm,Calm,-,N/A,,Clear,0,2012-12-03 20:35:00
2:55 PM,71.6,53.6,53,30.19,10.0,SSW,4.6,-,N/A,,Clear,200,2012-12-03 20:55:00
3:15 PM,71.6,53.6,53,30.19,10.0,South,8.1,-,N/A,,Clear,180,2012-12-03 21:15:00
3:35 PM,69.8,53.6,56,30.20,10.0,South,4.6,-,N/A,,Clear,180,2012-12-03 21:35:00
3:55 PM,68.0,53.6,60,30.20,10.0,South,4.6,-,N/A,,Clear,180,2012-12-03 21:55:00
4:15 PM,66.2,53.6,64,30.20,10.0,South,4.6,-,N/A,,Clear,190,2012-12-03 22:15:00
4:35 PM,64.4,53.6,68,30.20,10.0,Calm,Calm,-,N/A,,Clear,0,2012-12-03 22:35:00
4:55 PM,60.8,51.8,72,30.20,10.0,Calm,Calm,-,N/A,,Clear,0,2012-12-03 22:55:00
5:15 PM,57.2,51.8,82,30.21,5.0,Calm,Calm,-,N/A,,Haze,0,2012-12-03 23:15:00
5:35 PM,57.2,51.8,82,30.22,7.0,Calm,Calm,-,N/A,,Clear,0,2012-12-03 23:35:00
5:55 PM,53.6,48.2,82,30.22,10.0,Calm,Calm,-,N/A,,Clear,0,2012-12-03 23:55:00
6:15 PM,53.6,50.0,88,30.22,10.0,Calm,Calm,-,N/A,,Clear,0,2012-12-04 00:15:00
6:35 PM,51.8,48.2,88,30.22,7.0,Calm,Calm,-,N/A,,Clear,0,2012-12-04 00:35:00
6:55 PM,51.8,48.2,88,30.23,7.0,Calm,Calm,-,N/A,,Clear,0,2012-12-04 00:55:00
7:15 PM,51.8,48.2,88,30.23,7.0,Calm,Calm,-,N/A,,Clear,0,2012-12-04 01:15:00
7:35 PM,50.0,48.2,94,30.23,7.0,Calm,Calm,-,N/A,,Clear,0,2012-12-04 01:35:00
7:55 PM,48.2,46.4,93,30.23,10.0,Calm,Calm,-,N/A,,Clear,0,2012-12-04 01:55:00
8:15 PM,48.2,48.2,100,30.23,10.0,Calm,Calm,-,N/A,,Clear,0,2012-12-04 02:15:00
8:35 PM,46.4,46.4,100,30.23,10.0,Calm,Calm,-,N/A,,Clear,0,2012-12-04 02:35:00
8:55 PM,48.2,46.4,93,30.23,10.0,Calm,Calm,-,N/A,,Clear,0,2012-12-04 02:55:00
9:15 PM,46.4,46.4,100,30.23,10.0,Calm,Calm,-,N/A,,Clear,0,2012-12-04 03:15:00
9:35 PM,46.4,44.6,93,30.23,10.0,Calm,Calm,-,N/A,,Clear,0,2012-12-04 03:35:00
9:55 PM,46.4,46.4,100,30.23,10.0,Calm,Calm,-,N/A,,Scattered Clouds,0,2012-12-04 03:55:00
10:15 PM,46.4,44.6,93,30.23,7.0,Calm,Calm,-,N/A,,Clear,0,2012-12-04 04:15:00
10:35 PM,44.6,44.6,100,30.23,7.0,Calm,Calm,-,N/A,,Clear,0,2012-12-04 04:35:00
10:55 PM,44.6,44.6,100,30.23,7.0,Calm,Calm,-,N/A,,Clear,0,2012-12-04 04:55:00
11:15 PM,44.6,44.6,100,30.23,7.0,Calm,Calm,-,N/A,,Clear,0,2012-12-04 05:15:00
11:35 PM,44.6,42.8,93,30.23,7.0,Calm,Calm,-,N/A,,Clear,0,2012-12-04 05:35:00